Terminal Aerodrome Forecast
Issued by NWS Grand Forks, ND

Home | Current Version | Previous Version | Text Only | Print | Product List | Glossary Off
Versions: 1 2 3 4 5 6 7 8 9 10 11 12 13 14 15 16

000
FTUS43 KFGF 221100
TAFFAR
TAF
KFAR 221120Z 2212/2312 18009KT P6SM FEW250
      TEMPO 2213/2215 BKN012
     FM221700 20018G26KT P6SM BKN250
     FM231000 25015KT P6SM BKN080=

USA.gov is the U.S. government's official web portal to all federal, state and local government web resources and services.